contact:dominique.lefevre@mio.osupytheas.fr, maurice.libes@osupytheas.fr, didier.mallarino@osupytheas.fr
Project:EMSO http://www.emso-fr.org/EMSO-France
Depth: 2436.0 m
Title:EMSO Ligure Ouest : Data MII capteur AQUADOPP
Date,Latitude,Longitude,X_East,Y_North,Z_Up,Amplitude_X,Amplitude_Y,Amplitude_Z,Batterie,SoundSpeed,Heading,Pitch,Roll,Pressure,TIS,Speed,Direction
, degrees North, degrees East, m.s-1, m.s-1,m.s-1, 1, 1, 1, Volt, m.s-1, degree, degree, degree, dbar, degree_C, m.s-1, degree
2020-11-23T00:04:03,42.805,6.029,0.025,-0.02,-0.034,100.0,102.0,98.0,13.4,1505.2,326.8,-0.7,1.8,2470.564,13.3,0.032,128.7
2020-11-23T00:07:03,42.805,6.029,0.029,-0.028,-0.036,100.0,104.0,99.0,13.4,1505.3,326.1,-0.7,1.8,2470.555,13.31,0.04,134.0
2020-11-23T00:10:03,42.805,6.029,0.063,-0.036,0.004,103.0,104.0,100.0,13.4,1505.3,324.2,-0.7,1.8,2470.552,13.31,0.072,119.7
2020-11-23T00:13:03,42.805,6.029,0.037,-0.012,-0.019,100.0,102.0,97.0,13.4,1505.3,324.8,-0.7,1.8,2470.595,13.31,0.038,108.0
2020-11-23T00:16:03,42.805,6.029,0.044,-0.041,-0.036,100.0,102.0,98.0,13.4,1505.3,326.8,-0.7,1.8,2470.586,13.32,0.06,133.0
2020-11-23T00:19:03,42.805,6.029,0.049,-0.02,0.001,100.0,103.0,98.0,13.4,1505.3,325.2,-0.7,1.8,2470.531,13.32,0.052,112.2
2020-11-23T00:22:03,42.805,6.029,0.027,-0.031,-0.009,100.0,104.0,97.0,13.4,1505.3,326.9,-0.7,1.8,2470.577,13.32,0.041,138.9
2020-11-23T00:25:03,42.805,6.029,0.055,-0.03,-0.033,100.0,104.0,98.0,13.4,1505.3,324.0,-0.7,1.8,2470.598,13.32,0.062,118.6
2020-11-23T00:28:03,42.805,6.029,0.041,-0.014,0.021,99.0,103.0,99.0,13.4,1505.3,327.3,-0.7,1.8,2470.611,13.32,0.043,108.9
2020-11-23T00:31:03,42.805,6.029,0.051,-0.017,0.007,99.0,102.0,99.0,13.3,1505.3,326.4,-0.7,1.8,2470.561,13.32,0.053,108.4
2020-11-23T00:34:03,42.805,6.029,0.051,-0.037,-0.017,100.0,102.0,98.0,13.4,1505.3,324.9,-0.7,1.8,2470.574,13.32,0.063,126.0
2020-11-23T00:37:03,42.805,6.029,0.054,-0.025,-0.022,99.0,103.0,100.0,13.3,1505.3,325.6,-0.7,1.8,2470.563,13.32,0.059,114.8
2020-11-23T00:40:03,42.805,6.029,0.045,-0.041,-0.036,98.0,104.0,100.0,13.4,1505.3,326.5,-0.7,1.8,2470.549,13.32,0.06,132.3
2020-11-23T00:43:03,42.805,6.029,0.045,-0.023,-0.025,100.0,104.0,98.0,13.4,1505.3,324.9,-0.7,1.8,2470.576,13.32,0.05,117.1
2020-11-23T00:46:03,42.805,6.029,0.042,-0.014,-0.029,99.0,105.0,98.0,13.4,1505.3,324.5,-0.7,1.8,2470.59,13.32,0.044,108.4
2020-11-23T00:49:03,42.805,6.029,0.056,-0.034,-0.007,100.0,104.0,98.0,13.4,1505.3,324.9,-0.7,1.8,2470.564,13.32,0.065,121.3
2020-11-23T00:52:03,42.805,6.029,0.03,-0.038,-0.008,100.0,103.0,99.0,13.4,1505.3,323.5,-0.7,1.8,2470.562,13.32,0.048,141.7
2020-11-23T00:55:03,42.805,6.029,0.057,-0.035,-0.042,99.0,103.0,99.0,13.3,1505.3,323.8,-0.7,1.8,2470.555,13.32,0.066,121.6
2020-11-23T00:58:03,42.805,6.029,0.037,-0.025,0.0,100.0,103.0,98.0,13.3,1505.3,325.4,-0.7,1.8,2470.614,13.32,0.044,124.0
2020-11-23T01:04:03,42.805,6.029,0.054,-0.039,-0.025,101.0,104.0,99.0,13.4,1505.2,324.2,-0.7,1.8,2470.581,13.3,0.066,125.8
2020-11-23T01:07:03,42.805,6.029,0.007,-0.026,-0.044,100.0,103.0,98.0,13.4,1505.3,324.7,-0.7,1.9,2470.608,13.31,0.026,164.9
2020-11-23T01:10:03,42.805,6.029,0.039,-0.056,-0.043,100.0,104.0,98.0,13.4,1505.3,324.9,-0.7,1.8,2470.615,13.31,0.068,145.1
2020-11-23T01:13:03,42.805,6.029,0.057,-0.029,-0.017,101.0,102.0,99.0,13.3,1505.3,326.6,-0.7,1.8,2470.555,13.31,0.063,117.0
2020-11-23T01:16:03,42.805,6.029,0.064,-0.037,0.006,100.0,102.0,99.0,13.4,1505.3,327.6,-0.6,1.8,2470.588,13.32,0.073,120.0
2020-11-23T01:19:03,42.805,6.029,0.061,-0.029,-0.022,99.0,102.0,99.0,13.4,1505.3,326.6,-0.7,1.8,2470.569,13.32,0.067,115.4
2020-11-23T01:22:02,42.805,6.029,0.04,-0.048,-0.017,101.0,103.0,98.0,13.4,1505.3,327.3,-0.7,1.8,2470.559,13.32,0.062,140.2
2020-11-23T01:25:03,42.805,6.029,0.042,-0.03,-0.058,101.0,103.0,98.0,13.4,1505.3,325.9,-0.7,1.8,2470.601,13.32,0.051,125.5
2020-11-23T01:28:03,42.805,6.029,0.029,-0.025,-0.033,101.0,105.0,97.0,13.3,1505.3,328.0,-0.7,1.8,2470.547,13.32,0.038,130.8
2020-11-23T01:31:03,42.805,6.029,0.036,-0.027,0.032,100.0,105.0,99.0,13.4,1505.3,323.2,-0.7,1.8,2470.574,13.32,0.045,126.9
2020-11-23T01:34:03,42.805,6.029,0.048,-0.044,-0.042,100.0,103.0,98.0,13.3,1505.3,325.7,-0.7,1.8,2470.567,13.32,0.065,132.5
2020-11-23T01:37:03,42.805,6.029,0.035,-0.014,0.005,100.0,103.0,98.0,13.3,1505.3,323.5,-0.7,1.8,2470.539,13.32,0.037,111.8
2020-11-23T01:40:03,42.805,6.029,0.019,-0.017,-0.029,100.0,104.0,98.0,13.4,1505.3,326.7,-0.7,1.8,2470.589,13.32,0.025,131.8
2020-11-23T01:43:03,42.805,6.029,0.018,-0.013,0.004,101.0,105.0,98.0,13.3,1505.3,327.5,-0.7,1.8,2470.526,13.32,0.022,125.8
2020-11-23T01:46:03,42.805,6.029,0.015,-0.012,-0.025,100.0,104.0,98.0,13.4,1505.3,322.9,-0.7,1.9,2470.578,13.32,0.019,128.7
2020-11-23T01:49:03,42.805,6.029,0.057,-0.024,-0.003,99.0,104.0,98.0,13.4,1505.3,325.0,-0.7,1.8,2470.571,13.32,0.061,112.8
2020-11-23T01:52:03,42.805,6.029,0.028,-0.017,-0.029,101.0,103.0,98.0,13.4,1505.3,326.5,-0.7,1.8,2470.549,13.32,0.032,121.3
2020-11-23T01:55:03,42.805,6.029,0.048,-0.016,0.0,101.0,101.0,98.0,13.4,1505.3,323.5,-0.7,1.9,2470.545,13.32,0.05,108.4
2020-11-23T01:58:03,42.805,6.029,0.033,-0.026,-0.006,100.0,104.0,98.0,13.4,1505.3,324.5,-0.7,1.8,2470.592,13.32,0.042,128.2
2020-11-23T02:04:03,42.805,6.029,0.049,-0.023,0.02,101.0,102.0,99.0,13.4,1505.2,326.7,-0.7,1.8,2470.548,13.3,0.054,115.1
2020-11-23T02:07:03,42.805,6.029,0.03,-0.015,-0.014,99.0,103.0,99.0,13.4,1505.3,325.1,-0.7,1.9,2470.542,13.31,0.033,116.6
2020-11-23T02:10:03,42.805,6.029,0.009,-0.004,0.02,99.0,104.0,99.0,13.4,1505.3,326.4,-0.8,1.8,2470.602,13.31,0.009,114.0
2020-11-23T02:13:03,42.805,6.029,0.029,-0.034,-0.024,100.0,103.0,99.0,13.4,1505.3,323.6,-0.7,1.8,2470.598,13.31,0.044,139.5
2020-11-23T02:16:03,42.805,6.029,0.046,-0.018,0.005,100.0,102.0,99.0,13.4,1505.3,326.0,-0.7,1.8,2470.582,13.32,0.049,111.4
2020-11-23T02:19:03,42.805,6.029,0.027,-0.016,0.02,99.0,103.0,98.0,13.3,1505.3,324.1,-0.7,1.9,2470.582,13.32,0.031,120.7
2020-11-23T02:22:03,42.805,6.029,0.028,-0.006,0.002,99.0,102.0,100.0,13.4,1505.3,324.6,-0.7,1.8,2470.566,13.32,0.028,102.1
2020-11-23T02:25:03,42.805,6.029,0.037,-0.015,0.013,100.0,104.0,98.0,13.4,1505.3,326.3,-0.6,1.9,2470.559,13.32,0.039,112.1
2020-11-23T02:28:03,42.805,6.029,0.033,-0.032,-0.022,101.0,102.0,99.0,13.4,1505.3,328.1,-0.7,1.9,2470.571,13.32,0.045,134.1
2020-11-23T02:31:03,42.805,6.029,0.054,-0.037,0.013,100.0,103.0,98.0,13.4,1505.3,324.4,-0.7,1.8,2470.605,13.32,0.065,124.4
2020-11-23T02:34:03,42.805,6.029,0.032,-0.024,-0.026,101.0,105.0,97.0,13.4,1505.3,326.2,-0.7,1.9,2470.498,13.32,0.04,126.9
2020-11-23T02:37:03,42.805,6.029,0.051,-0.024,0.013,101.0,103.0,99.0,13.4,1505.3,326.0,-0.7,1.8,2470.542,13.32,0.056,115.2
2020-11-23T02:40:03,42.805,6.029,0.023,-0.02,0.002,100.0,102.0,98.0,13.4,1505.3,326.9,-0.7,1.8,2470.594,13.32,0.03,131.0
2020-11-23T02:43:03,42.805,6.029,0.034,-0.026,-0.055,99.0,103.0,98.0,13.4,1505.3,326.0,-0.7,1.8,2470.595,13.32,0.042,127.4
2020-11-23T02:46:03,42.805,6.029,0.02,-0.004,-0.024,98.0,103.0,100.0,13.4,1505.3,328.0,-0.7,1.8,2470.546,13.32,0.02,101.3
2020-11-23T02:49:03,42.805,6.029,0.023,-0.014,-0.003,100.0,104.0,97.0,13.4,1505.3,325.8,-0.7,1.8,2470.556,13.32,0.026,121.3
2020-11-23T02:52:03,42.805,6.029,0.058,-0.03,-0.003,99.0,103.0,99.0,13.4,1505.3,323.0,-0.7,1.8,2470.523,13.32,0.065,117.4
2020-11-23T02:55:03,42.805,6.029,0.047,-0.032,0.015,100.0,103.0,99.0,13.4,1505.3,327.7,-0.7,1.8,2470.576,13.32,0.056,124.2
2020-11-23T02:58:04,42.805,6.029,0.032,-0.014,-0.008,100.0,106.0,98.0,13.4,1505.3,323.7,-0.7,1.8,2470.54,13.32,0.034,113.6
2020-11-23T03:04:03,42.805,6.029,0.024,-0.026,-0.028,100.0,103.0,98.0,13.3,1505.2,326.4,-0.7,1.8,2470.632,13.3,0.035,137.3
2020-11-23T03:07:03,42.805,6.029,0.038,-0.009,0.029,100.0,103.0,98.0,13.3,1505.3,328.3,-0.7,1.9,2470.594,13.31,0.039,103.3
2020-11-23T03:10:03,42.805,6.029,0.032,-0.038,-0.013,99.0,105.0,99.0,13.3,1505.3,325.4,-0.7,1.8,2470.596,13.31,0.049,139.9
2020-11-23T03:13:03,42.805,6.029,0.011,-0.018,-0.008,99.0,105.0,98.0,13.4,1505.3,327.5,-0.7,1.8,2470.547,13.32,0.021,148.6
2020-11-23T03:16:03,42.805,6.029,0.007,-0.026,-0.009,98.0,105.0,98.0,13.4,1505.3,326.4,-0.7,1.8,2470.52,13.32,0.026,164.9
2020-11-23T03:19:03,42.805,6.029,0.018,-0.008,0.009,99.0,106.0,99.0,13.4,1505.3,327.5,-0.7,1.8,2470.512,13.32,0.019,114.0
2020-11-23T03:22:03,42.805,6.029,0.047,-0.052,-0.035,101.0,101.0,99.0,13.4,1505.3,325.7,-0.7,1.8,2470.51,13.32,0.07,137.9
2020-11-23T03:25:03,42.805,6.029,0.022,-0.027,0.012,101.0,104.0,97.0,13.4,1505.3,327.1,-0.7,1.8,2470.589,13.32,0.034,140.8
2020-11-23T03:28:03,42.805,6.029,0.052,-0.016,0.022,101.0,104.0,97.0,13.4,1505.3,325.5,-0.7,1.8,2470.549,13.32,0.054,107.1
2020-11-23T03:31:03,42.805,6.029,0.048,-0.024,-0.025,100.0,103.0,98.0,13.4,1505.3,326.1,-0.7,1.8,2470.516,13.32,0.053,116.6
2020-11-23T03:34:03,42.805,6.029,0.023,-0.041,-0.028,101.0,106.0,98.0,13.4,1505.3,323.8,-0.7,1.8,2470.577,13.32,0.047,150.7
2020-11-23T03:37:03,42.805,6.029,0.007,-0.015,-0.01,101.0,106.0,98.0,13.4,1505.3,324.0,-0.7,1.8,2470.542,13.32,0.016,155.0
2020-11-23T03:40:03,42.805,6.029,0.037,-0.007,-0.022,100.0,104.0,98.0,13.4,1505.3,323.0,-0.7,1.8,2470.559,13.32,0.037,100.7
2020-11-23T03:43:03,42.805,6.029,0.012,-0.03,-0.014,101.0,103.0,99.0,13.4,1505.3,326.1,-0.7,1.8,2470.564,13.32,0.032,158.2
2020-11-23T03:46:03,42.805,6.029,0.034,-0.019,-0.008,99.0,103.0,99.0,13.4,1505.3,324.1,-0.7,1.8,2470.519,13.32,0.038,119.2
2020-11-23T03:49:03,42.805,6.029,0.023,-0.018,0.022,100.0,105.0,97.0,13.4,1505.3,328.3,-0.7,1.8,2470.574,13.32,0.029,128.0
2020-11-23T03:52:03,42.805,6.029,0.042,-0.026,-0.015,101.0,105.0,98.0,13.4,1505.3,323.6,-0.7,1.8,2470.558,13.32,0.049,121.8
2020-11-23T03:55:03,42.805,6.029,0.038,-0.013,-0.013,101.0,107.0,98.0,13.4,1505.3,323.8,-0.7,1.8,2470.52,13.32,0.04,108.9
2020-11-23T03:58:03,42.805,6.029,0.047,-0.029,-0.01,99.0,107.0,98.0,13.3,1505.3,325.2,-0.7,1.8,2470.598,13.32,0.055,121.7
2020-11-23T04:04:03,42.805,6.029,0.014,-0.021,0.011,100.0,105.0,99.0,13.4,1505.2,326.4,-0.7,1.8,2470.577,13.3,0.025,146.3
2020-11-23T04:07:03,42.805,6.029,0.032,-0.011,0.012,99.0,103.0,100.0,13.4,1505.3,326.8,-0.7,1.8,2470.584,13.31,0.033,109.0
2020-11-23T04:10:03,42.805,6.029,0.026,-0.022,-0.001,100.0,106.0,98.0,13.3,1505.3,324.5,-0.7,1.8,2470.545,13.31,0.034,130.2
2020-11-23T04:13:03,42.805,6.029,0.038,-0.031,0.006,100.0,105.0,98.0,13.4,1505.3,325.0,-0.7,1.8,2470.566,13.32,0.049,129.2
2020-11-23T04:16:03,42.805,6.029,0.025,-0.024,0.006,100.0,106.0,99.0,13.3,1505.3,323.2,-0.7,1.8,2470.571,13.32,0.034,133.8
2020-11-23T04:19:03,42.805,6.029,0.062,-0.028,-0.002,101.0,103.0,98.0,13.4,1505.3,327.8,-0.7,1.8,2470.516,13.32,0.068,114.3
2020-11-23T04:22:03,42.805,6.029,0.047,0.002,0.035,102.0,104.0,98.0,13.4,1505.3,327.2,-0.7,1.8,2470.52,13.32,0.047,87.6
2020-11-23T04:25:03,42.805,6.029,0.029,-0.012,0.0,100.0,103.0,99.0,13.3,1505.3,324.6,-0.7,1.8,2470.535,13.32,0.031,112.5
2020-11-23T04:28:03,42.805,6.029,0.008,-0.014,-0.028,99.0,106.0,99.0,13.3,1505.3,328.6,-0.7,1.8,2470.527,13.32,0.016,150.3
2020-11-23T04:31:03,42.805,6.029,0.047,-0.012,0.044,100.0,105.0,98.0,13.4,1505.3,324.6,-0.7,1.8,2470.537,13.32,0.048,104.3
2020-11-23T04:34:03,42.805,6.029,0.032,-0.015,-0.023,100.0,108.0,99.0,13.4,1505.3,324.1,-0.7,1.9,2470.553,13.32,0.035,115.1
2020-11-23T04:37:03,42.805,6.029,0.023,0.004,0.008,99.0,107.0,99.0,13.4,1505.3,322.8,-0.7,1.8,2470.594,13.32,0.023,80.1
2020-11-23T04:40:03,42.805,6.029,0.042,-0.025,0.01,100.0,107.0,98.0,13.4,1505.3,325.2,-0.7,1.8,2470.581,13.32,0.048,120.8
2020-11-23T04:43:03,42.805,6.029,0.021,-0.014,-0.027,100.0,107.0,99.0,13.4,1505.3,323.9,-0.7,1.8,2470.532,13.32,0.025,123.7
2020-11-23T04:46:03,42.805,6.029,0.009,-0.022,0.0,101.0,107.0,98.0,13.4,1505.3,326.0,-0.7,1.8,2470.511,13.32,0.023,157.8
2020-11-23T04:49:03,42.805,6.029,0.028,-0.001,0.013,100.0,110.0,99.0,13.4,1505.3,324.4,-0.7,1.8,2470.519,13.32,0.028,92.0
2020-11-23T04:52:03,42.805,6.029,0.042,-0.022,0.015,101.0,107.0,99.0,13.4,1505.3,323.2,-0.7,1.8,2470.54,13.32,0.047,117.6
2020-11-23T04:55:03,42.805,6.029,0.029,-0.002,-0.005,101.0,108.0,98.0,13.4,1505.3,325.7,-0.7,1.9,2470.528,13.32,0.029,93.9
2020-11-23T04:58:03,42.805,6.029,0.015,-0.018,-0.031,100.0,107.0,100.0,13.4,1505.3,325.8,-0.7,1.8,2470.578,13.32,0.023,140.2
2020-11-23T05:04:03,42.805,6.029,0.022,-0.011,0.009,100.0,109.0,99.0,13.4,1505.2,324.3,-0.7,1.8,2470.565,13.3,0.024,116.6
2020-11-23T05:07:03,42.805,6.029,0.033,-0.021,0.006,101.0,107.0,98.0,13.3,1505.3,326.4,-0.7,1.8,2470.559,13.31,0.039,122.5
2020-11-23T05:10:03,42.805,6.029,0.033,-0.001,-0.002,100.0,107.0,98.0,13.3,1505.3,327.2,-0.7,1.8,2470.564,13.31,0.033,91.7
2020-11-23T05:13:03,42.805,6.029,0.014,-0.033,0.011,101.0,109.0,99.0,13.3,1505.3,325.4,-0.7,1.8,2470.548,13.32,0.035,157.0
2020-11-23T05:16:03,42.805,6.029,0.002,-0.015,-0.022,101.0,110.0,99.0,13.4,1505.3,327.9,-0.7,1.8,2470.552,13.32,0.015,172.4
2020-11-23T05:19:03,42.805,6.029,0.004,-0.012,-0.036,101.0,109.0,99.0,13.4,1505.3,323.0,-0.7,1.8,2470.588,13.32,0.012,161.6
2020-11-23T05:22:03,42.805,6.029,0.025,-0.008,-0.019,100.0,109.0,98.0,13.3,1505.3,326.1,-0.7,1.8,2470.525,13.32,0.026,107.7
2020-11-23T05:25:03,42.805,6.029,0.016,-0.013,-0.002,100.0,109.0,99.0,13.4,1505.3,326.5,-0.7,1.8,2470.576,13.32,0.02,129.1
2020-11-23T05:28:03,42.805,6.029,0.029,-0.002,0.014,101.0,109.0,99.0,13.4,1505.3,325.3,-0.7,1.8,2470.557,13.32,0.029,93.9
2020-11-23T05:31:03,42.805,6.029,0.039,-0.022,0.011,102.0,105.0,98.0,13.4,1505.3,325.9,-0.7,1.8,2470.553,13.32,0.044,119.4
2020-11-23T05:34:03,42.805,6.029,0.024,-0.021,-0.015,100.0,106.0,99.0,13.4,1505.3,324.7,-0.7,1.8,2470.538,13.32,0.031,131.2
2020-11-23T05:37:03,42.805,6.029,0.021,-0.032,0.0,100.0,108.0,99.0,13.4,1505.3,327.2,-0.7,1.8,2470.548,13.32,0.038,146.7
2020-11-23T05:40:03,42.805,6.029,0.01,-0.011,0.001,100.0,109.0,99.0,13.4,1505.3,324.0,-0.7,1.8,2470.525,13.32,0.014,137.7
2020-11-23T05:43:03,42.805,6.029,0.042,-0.02,-0.016,101.0,110.0,99.0,13.3,1505.3,325.9,-0.7,1.8,2470.501,13.32,0.046,115.5
2020-11-23T05:49:03,42.805,6.029,0.038,-0.019,-0.011,101.0,111.0,99.0,13.4,1505.2,328.5,-0.7,1.8,2470.586,13.3,0.042,116.6
2020-11-23T05:52:03,42.805,6.029,0.017,-0.01,-0.009,100.0,111.0,100.0,13.4,1505.3,324.0,-0.7,1.8,2470.559,13.31,0.019,120.5
2020-11-23T05:55:03,42.805,6.029,0.033,0.005,0.026,100.0,109.0,99.0,13.4,1505.3,324.7,-0.8,1.8,2470.561,13.31,0.033,81.4
2020-11-23T05:58:03,42.805,6.029,0.046,-0.015,0.037,101.0,110.0,99.0,13.4,1505.3,322.6,-0.7,1.9,2470.576,13.31,0.048,108.1
2020-11-23T06:04:03,42.805,6.029,0.037,-0.012,0.014,100.0,110.0,99.0,13.4,1505.2,325.7,-0.7,1.8,2470.608,13.3,0.038,108.0
2020-11-23T06:07:03,42.805,6.029,0.022,-0.02,-0.056,101.0,110.0,99.0,13.3,1505.3,327.9,-0.7,1.8,2470.566,13.31,0.029,132.3
2020-11-23T06:10:03,42.805,6.029,0.03,-0.032,-0.003,101.0,109.0,99.0,13.4,1505.3,325.6,-0.7,1.8,2470.581,13.31,0.043,136.9
2020-11-23T06:13:03,42.805,6.029,0.017,-0.006,-0.007,100.0,108.0,99.0,13.4,1505.3,326.5,-0.7,1.8,2470.581,13.31,0.018,109.4
2020-11-23T06:16:03,42.805,6.029,0.039,0.012,0.015,100.0,109.0,99.0,13.4,1505.3,327.8,-0.7,1.8,2470.564,13.32,0.04,72.9
2020-11-23T06:19:03,42.805,6.029,0.026,-0.017,-0.035,101.0,110.0,98.0,13.3,1505.3,325.2,-0.7,1.8,2470.572,13.32,0.031,123.2
2020-11-23T06:22:03,42.805,6.029,0.027,-0.028,-0.03,101.0,109.0,99.0,13.3,1505.3,324.6,-0.7,1.9,2470.543,13.32,0.038,136.0
2020-11-23T06:25:03,42.805,6.029,0.022,-0.003,-0.006,101.0,110.0,98.0,13.3,1505.3,325.8,-0.7,1.8,2470.52,13.32,0.022,97.8
2020-11-23T06:28:03,42.805,6.029,0.045,-0.021,-0.005,100.0,107.0,99.0,13.4,1505.3,323.5,-0.7,1.9,2470.54,13.32,0.049,115.0
2020-11-23T06:31:03,42.805,6.029,0.003,-0.007,-0.023,100.0,110.0,99.0,13.4,1505.3,325.7,-0.7,1.8,2470.547,13.32,0.007,156.8
2020-11-23T06:34:03,42.805,6.029,0.033,-0.008,-0.056,99.0,111.0,99.0,13.3,1505.3,324.5,-0.6,1.8,2470.528,13.32,0.033,103.6
2020-11-23T06:37:03,42.805,6.029,0.039,-0.023,-0.008,101.0,111.0,99.0,13.4,1505.3,326.2,-0.7,1.8,2470.548,13.32,0.045,120.5
2020-11-23T06:40:03,42.805,6.029,0.026,0.001,0.003,101.0,111.0,99.0,13.4,1505.3,327.4,-0.7,1.8,2470.528,13.32,0.026,87.8
2020-11-23T06:43:03,42.805,6.029,0.019,-0.017,-0.007,101.0,111.0,100.0,13.3,1505.3,325.9,-0.7,1.8,2470.527,13.32,0.025,131.8
2020-11-23T06:46:03,42.805,6.029,0.018,-0.004,-0.008,101.0,111.0,99.0,13.3,1505.3,327.7,-0.7,1.8,2470.521,13.32,0.018,102.5
2020-11-23T06:49:03,42.805,6.029,0.032,-0.018,-0.017,102.0,111.0,99.0,13.3,1505.3,325.9,-0.7,1.8,2470.528,13.32,0.036,119.4
2020-11-23T06:52:03,42.805,6.029,0.046,-0.022,0.0,101.0,108.0,100.0,13.4,1505.3,325.1,-0.7,1.8,2470.496,13.32,0.05,115.6
2020-11-23T06:55:03,42.805,6.029,0.017,0.003,-0.011,101.0,112.0,100.0,13.4,1505.3,327.0,-0.7,1.8,2470.521,13.32,0.017,80.0
2020-11-23T06:58:03,42.805,6.029,0.028,0.001,-0.023,100.0,111.0,99.0,13.4,1505.3,327.5,-0.7,1.8,2470.543,13.32,0.028,88.0
2020-11-23T07:04:03,42.805,6.029,0.004,0.006,-0.001,101.0,112.0,99.0,13.4,1505.2,326.0,-0.7,1.8,2470.577,13.3,0.007,33.7
2020-11-23T07:07:03,42.805,6.029,0.039,-0.025,-0.004,102.0,110.0,99.0,13.4,1505.3,323.6,-0.7,1.8,2470.538,13.31,0.046,122.7
2020-11-23T07:10:03,42.805,6.029,0.028,-0.019,-0.017,101.0,114.0,100.0,13.4,1505.3,324.7,-0.7,1.8,2470.577,13.31,0.033,124.2
2020-11-23T07:13:03,42.805,6.029,0.029,-0.008,-0.023,101.0,111.0,100.0,13.3,1505.3,325.0,-0.7,1.9,2470.528,13.31,0.03,105.4
2020-11-23T07:16:03,42.805,6.029,0.03,-0.021,0.019,101.0,111.0,100.0,13.4,1505.3,327.5,-0.7,1.8,2470.497,13.32,0.036,125.0
2020-11-23T07:19:03,42.805,6.029,0.025,-0.017,-0.014,101.0,112.0,99.0,13.4,1505.3,326.2,-0.7,1.8,2470.52,13.32,0.03,124.2
2020-11-23T07:22:03,42.805,6.029,0.017,-0.015,-0.033,100.0,112.0,100.0,13.3,1505.3,327.2,-0.7,1.8,2470.523,13.32,0.022,131.4
2020-11-23T07:25:03,42.805,6.029,0.005,-0.007,-0.031,101.0,113.0,99.0,13.4,1505.3,324.4,-0.7,1.8,2470.512,13.32,0.008,144.5
2020-11-23T07:28:03,42.805,6.029,0.019,-0.018,-0.034,101.0,110.0,99.0,13.4,1505.3,323.1,-0.7,1.8,2470.555,13.32,0.026,133.5
2020-11-23T07:31:03,42.805,6.029,0.006,-0.001,-0.013,101.0,112.0,99.0,13.4,1505.3,324.1,-0.7,1.8,2470.533,13.32,0.006,99.5
2020-11-23T07:34:03,42.805,6.029,0.048,-0.004,0.017,101.0,112.0,100.0,13.3,1505.3,322.9,-0.7,1.8,2470.509,13.32,0.048,94.8
2020-11-23T07:37:03,42.805,6.029,0.035,0.012,0.002,100.0,111.0,100.0,13.3,1505.3,324.6,-0.7,1.8,2470.51,13.32,0.037,71.1
2020-11-23T07:40:03,42.805,6.029,0.005,-0.027,-0.022,102.0,112.0,100.0,13.3,1505.3,324.1,-0.7,1.8,2470.526,13.32,0.027,169.5
2020-11-23T07:43:03,42.805,6.029,0.045,-0.006,0.006,100.0,110.0,99.0,13.4,1505.3,326.4,-0.7,1.8,2470.511,13.32,0.045,97.6
2020-11-23T07:46:03,42.805,6.029,0.035,-0.008,0.003,101.0,109.0,100.0,13.4,1505.3,327.0,-0.7,1.8,2470.542,13.32,0.035,102.9
2020-11-23T07:49:03,42.805,6.029,0.038,-0.023,-0.014,102.0,110.0,100.0,13.4,1505.3,323.2,-0.7,1.8,2470.483,13.32,0.044,121.2
2020-11-23T07:52:03,42.805,6.029,0.045,0.008,0.026,102.0,112.0,99.0,13.3,1505.3,326.1,-0.7,1.8,2470.486,13.32,0.045,79.9
2020-11-23T07:55:03,42.805,6.029,0.014,-0.031,-0.055,102.0,111.0,99.0,13.3,1505.3,326.7,-0.7,1.8,2470.54,13.32,0.034,155.7
2020-11-23T07:58:03,42.805,6.029,0.052,-0.023,-0.011,99.0,112.0,100.0,13.4,1505.3,323.2,-0.7,1.8,2470.534,13.32,0.056,113.9
2020-11-23T08:04:03,42.805,6.029,0.039,-0.009,-0.001,101.0,111.0,100.0,13.4,1505.2,325.9,-0.7,1.8,2470.53,13.3,0.04,103.0
2020-11-23T08:07:03,42.805,6.029,0.022,-0.025,-0.036,103.0,113.0,100.0,13.4,1505.3,326.1,-0.7,1.8,2470.521,13.31,0.033,138.7
2020-11-23T08:10:03,42.805,6.029,0.046,-0.03,0.0,101.0,113.0,99.0,13.4,1505.3,325.5,-0.7,1.8,2470.515,13.31,0.054,123.1
2020-11-23T08:13:03,42.805,6.029,0.025,-0.025,0.002,101.0,112.0,99.0,13.4,1505.3,328.1,-0.7,1.8,2470.537,13.31,0.035,135.0
2020-11-23T08:16:03,42.805,6.029,0.036,0.016,0.019,101.0,110.0,99.0,13.4,1505.3,323.3,-0.7,1.8,2470.527,13.32,0.039,66.0
2020-11-23T08:19:03,42.805,6.029,0.048,-0.023,-0.023,102.0,111.0,99.0,13.4,1505.3,324.4,-0.7,1.8,2470.56,13.32,0.053,115.6
2020-11-23T08:22:03,42.805,6.029,0.026,-0.015,-0.001,102.0,113.0,100.0,13.4,1505.3,324.8,-0.7,1.8,2470.508,13.32,0.03,120.0
2020-11-23T08:25:03,42.805,6.029,0.02,-0.022,-0.009,100.0,113.0,101.0,13.4,1505.3,325.1,-0.7,1.8,2470.576,13.32,0.029,137.7
2020-11-23T08:28:03,42.805,6.029,0.032,-0.022,-0.023,99.0,110.0,100.0,13.3,1505.3,328.1,-0.7,1.8,2470.508,13.32,0.038,124.5
2020-11-23T08:31:03,42.805,6.029,0.026,-0.005,-0.013,100.0,113.0,99.0,13.3,1505.3,327.3,-0.7,1.8,2470.55,13.32,0.026,100.9
2020-11-23T08:34:03,42.805,6.029,0.054,-0.026,-0.026,101.0,109.0,100.0,13.4,1505.3,327.9,-0.7,1.8,2470.504,13.32,0.059,115.7
2020-11-23T08:37:03,42.805,6.029,0.028,-0.023,-0.042,102.0,111.0,99.0,13.4,1505.3,326.8,-0.7,1.8,2470.523,13.32,0.036,129.4
2020-11-23T08:40:03,42.805,6.029,0.049,-0.022,0.024,101.0,111.0,99.0,13.4,1505.3,324.0,-0.7,1.8,2470.518,13.32,0.053,114.2
2020-11-23T08:43:03,42.805,6.029,0.022,-0.012,-0.003,101.0,111.0,100.0,13.4,1505.3,324.6,-0.7,1.8,2470.532,13.32,0.025,118.6
2020-11-23T08:46:03,42.805,6.029,0.022,-0.004,-0.035,100.0,114.0,100.0,13.4,1505.3,323.4,-0.7,1.8,2470.526,13.32,0.022,100.3
2020-11-23T08:49:03,42.805,6.029,0.045,-0.024,-0.006,101.0,113.0,99.0,13.3,1505.3,327.0,-0.7,1.8,2470.511,13.32,0.051,118.1
2020-11-23T08:52:03,42.805,6.029,0.043,-0.034,-0.02,100.0,111.0,99.0,13.4,1505.3,324.2,-0.7,1.8,2470.525,13.32,0.054,128.3
2020-11-23T08:55:03,42.805,6.029,0.041,-0.015,0.034,101.0,106.0,99.0,13.3,1505.3,324.3,-0.7,1.8,2470.493,13.32,0.043,110.1
2020-11-23T08:58:03,42.805,6.029,0.005,-0.01,-0.027,101.0,112.0,99.0,13.3,1505.3,324.7,-0.7,1.8,2470.535,13.32,0.011,153.4
2020-11-23T09:04:03,42.805,6.029,0.037,-0.01,0.002,101.0,109.0,99.0,13.3,1505.2,327.7,-0.8,1.8,2470.531,13.3,0.038,105.1
2020-11-23T09:07:03,42.805,6.029,0.034,-0.012,0.013,101.0,109.0,99.0,13.3,1505.3,324.7,-0.7,1.8,2470.566,13.31,0.036,109.4
2020-11-23T09:10:03,42.805,6.029,0.057,-0.028,-0.007,100.0,110.0,100.0,13.4,1505.3,326.4,-0.7,1.8,2470.527,13.31,0.063,116.2
2020-11-23T09:13:03,42.805,6.029,0.03,-0.01,-0.035,100.0,110.0,100.0,13.4,1505.3,323.8,-0.7,1.9,2470.547,13.31,0.031,108.4
2020-11-23T09:16:03,42.805,6.029,0.027,-0.038,-0.016,101.0,108.0,98.0,13.4,1505.3,326.3,-0.7,1.8,2470.575,13.32,0.046,144.6
2020-11-23T09:19:03,42.805,6.029,0.042,-0.02,0.003,101.0,106.0,100.0,13.3,1505.3,325.6,-0.7,1.8,2470.561,13.32,0.046,115.5
2020-11-23T09:22:03,42.805,6.029,0.029,0.003,-0.003,100.0,111.0,100.0,13.3,1505.3,322.8,-0.7,1.8,2470.534,13.32,0.029,84.1
2020-11-23T09:25:03,42.805,6.029,0.058,-0.036,-0.015,101.0,108.0,99.0,13.3,1505.3,325.0,-0.8,1.8,2470.517,13.32,0.068,121.8
2020-11-23T09:28:03,42.805,6.029,0.034,-0.018,0.018,101.0,107.0,99.0,13.4,1505.3,324.7,-0.7,1.9,2470.537,13.32,0.038,117.9
2020-11-23T09:31:03,42.805,6.029,0.037,-0.037,-0.038,101.0,107.0,100.0,13.4,1505.3,326.1,-0.7,1.8,2470.533,13.32,0.052,135.0
2020-11-23T09:34:03,42.805,6.029,0.032,-0.035,-0.019,100.0,110.0,100.0,13.4,1505.3,325.5,-0.7,1.8,2470.581,13.32,0.047,137.6
2020-11-23T09:37:03,42.805,6.029,0.028,-0.036,-0.048,100.0,108.0,100.0,13.3,1505.3,325.5,-0.7,1.8,2470.572,13.32,0.045,142.1
2020-11-23T09:40:03,42.805,6.029,0.078,-0.021,0.009,102.0,108.0,100.0,13.4,1505.3,325.5,-0.7,1.8,2470.538,13.32,0.08,105.1
2020-11-23T09:43:03,42.805,6.029,0.03,-0.017,0.046,101.0,106.0,99.0,13.3,1505.3,328.2,-0.7,1.8,2470.545,13.32,0.034,119.5
2020-11-23T09:46:03,42.805,6.029,0.025,-0.013,-0.01,102.0,111.0,100.0,13.4,1505.3,324.5,-0.7,1.8,2470.548,13.32,0.028,117.5
2020-11-23T09:49:03,42.805,6.029,0.058,-0.007,0.033,100.0,105.0,101.0,13.3,1505.3,323.0,-0.7,1.8,2470.565,13.32,0.058,96.9
2020-11-23T09:52:03,42.805,6.029,0.032,-0.009,-0.005,101.0,109.0,99.0,13.4,1505.3,324.4,-0.7,1.9,2470.529,13.32,0.033,105.7
2020-11-23T09:55:03,42.805,6.029,0.04,-0.031,-0.013,102.0,109.0,100.0,13.4,1505.3,326.9,-0.7,1.8,2470.51,13.32,0.05,127.8
2020-11-23T09:58:03,42.805,6.029,0.066,-0.036,0.011,101.0,109.0,99.0,13.4,1505.3,326.4,-0.7,1.8,2470.495,13.32,0.075,118.6
2020-11-23T10:04:03,42.805,6.029,0.054,-0.039,-0.008,101.0,109.0,100.0,13.4,1505.2,327.2,-0.7,1.8,2470.58,13.3,0.066,125.8
2020-11-23T10:07:03,42.805,6.029,0.042,-0.02,-0.02,101.0,110.0,99.0,13.4,1505.3,326.9,-0.7,1.8,2470.555,13.31,0.046,115.5